[[{"header":{"parameterUnit":"m.s-1","parameterCategory":1,"la1":30.2992,"la2":30.254,"lo1":-89.0895,"lo2":-89.0443,"dy":0.0025,"dx":0.0025,"nx":19,"ny":19,"refTime":"2026-05-09T03:00:00:Z","depth":0,"parameterNumber":2,"parameterNumberName":"U-component_of_WINDS"},"data":[0,0,0,-1.6892,-1.6892,-1.6936,-1.6937,-1.6984,-1.6984,0,0,0,0,0,0,0,0,0,0,0,-1.6873,-1.6873,-1.6892,-1.6893,-1.6936,-1.6937,-1.6984,-1.6984,0,0,0,0,0,0,0,0,0,0,0,-1.6873,-1.6873,-1.6874,-1.6893,-1.6936,-1.6937,-1.6983,-1.6954,0,0,0,0,0,0,0,0,0,0,-1.6912,-1.689,-1.6873,-1.6874,-1.6893,-1.6936,-1.6937,-1.6952,-1.6955,-1.696,0,-1.6963,0,-1.6974,-1.6987,-1.6987,0,0,0,-1.6896,-1.6888,-1.6904,-1.6874,-1.6893,-1.6936,-1.6918,-1.6954,-1.6958,-1.6964,-1.6963,-1.6965,-1.6975,-1.6987,-1.6987,-1.7,-1.7,0,0,-1.6894,-1.6878,-1.6902,-1.6906,-1.6899,-1.6916,-1.6919,-1.6956,-1.6955,-1.6964,-1.6967,-1.6976,-1.6987,-1.6987,-1.7,-1.7,0,0,0,-1.6884,-1.6876,-1.6892,-1.6904,-1.6913,-1.6917,-1.6921,-1.6953,-1.696,-1.6967,-1.6976,-1.6987,-1.6988,-1.7,-1.7,-1.6978,0,0,0,-1.6883,-1.6871,-1.6891,-1.6882,-1.6912,-1.6934,-1.6916,-1.6957,-1.6962,-1.6976,-1.6987,-1.6988,-1.7001,-1.7,-1.6979,-1.697,0,0,0,-1.6872,-1.687,-1.6874,-1.6881,-1.6899,-1.6933,-1.6942,-1.6958,-1.6967,-1.6987,-1.6988,-1.7001,-1.7,-1.698,-1.6972,-1.6968,0,0,0,-1.6856,-1.6854,-1.6874,-1.6875,-1.6899,-1.692,-1.6942,-1.6958,-1.6973,-1.6987,-1.7001,-1.7,-1.698,-1.6972,-1.6969,-1.6962,-1.6958,0,0,-1.6845,-1.6852,-1.6855,-1.6873,-1.6886,-1.6914,-1.6925,-1.6953,-1.6969,-1.6989,-1.6989,-1.6979,-1.6972,-1.6969,-1.6942,-1.6939,0,0,0,-1.6846,-1.6847,-1.6854,-1.6867,-1.6889,-1.6906,-1.6935,-1.6945,-1.6963,-1.6976,-1.6978,-1.6974,-1.6973,-1.697,-1.6967,-1.6967,-1.6999,-1.6999,-1.6999,-1.6807,-1.6828,-1.6833,-1.6859,-1.6872,-1.6901,-1.6913,-1.6932,-1.695,-1.695,-1.6955,-1.6937,-1.6933,-1.6931,-1.693,-1.6955,-1.6954,-1.6954,-1.6954,-1.6792,-1.6797,-1.6821,-1.6834,-1.6856,-1.6867,-1.6896,-1.6908,-1.6921,-1.6935,-1.6935,-1.6946,-1.6927,-1.6927,-1.6953,-1.6953,-1.6953,-1.6953,-1.6954,-1.6768,-1.6774,-1.6787,-1.6808,-1.6822,-1.6849,-1.686,-1.6881,-1.69,-1.69,-1.6908,-1.6908,-1.691,-1.6903,-1.6902,-1.6902,-1.6902,-1.6902,-1.6902,-1.6738,-1.6753,-1.676,-1.6783,-1.6794,-1.6811,-1.6841,-1.6852,-1.687,-1.6884,-1.6884,-1.6901,-1.6921,-1.6925,-1.6901,-1.6902,-1.6902,-1.6902,-1.6902,-1.6713,-1.6722,-1.6733,-1.6744,-1.6772,-1.6784,-1.681,-1.6831,-1.6844,-1.6849,-1.6867,-1.6879,-1.6888,-1.689,-1.6893,-1.6863,-1.6863,-1.6863,-1.6863,-1.6691,-1.6698,-1.6714,-1.673,-1.6748,-1.6773,-1.6785,-1.6808,-1.6833,-1.6842,-1.685,-1.6857,-1.6858,-1.6866,-1.6869,-1.6873,-1.6837,-1.6837,-1.6837,-1.6677,-1.6686,-1.6692,-1.6717,-1.6741,-1.6761,-1.6772,-1.679,-1.6821,-1.6837,-1.685,-1.6851,-1.6862,-1.6864,-1.6879,-1.6883,-1.689,0,0]},{"header":{"parameterUnit":"m.s-1","parameterCategory":1,"la1":30.2992,"la2":30.254,"lo1":-89.0895,"lo2":-89.0443,"dy":0.0025,"dx":0.0025,"nx":19,"ny":19,"refTime":"2026-05-09T03:00:00:Z","depth":0,"parameterNumber":3,"parameterNumberName":"V-component_of_WINDS"},"data":[0,0,0,5.0436,5.044,5.0634,5.0635,5.0882,5.0884,0,0,0,0,0,0,0,0,0,0,0,5.038,5.0382,5.0436,5.0441,5.0634,5.0635,5.0882,5.0884,0,0,0,0,0,0,0,0,0,0,0,5.038,5.0382,5.0384,5.0442,5.0634,5.0635,5.0881,5.0735,0,0,0,0,0,0,0,0,0,0,5.0547,5.0497,5.0381,5.0384,5.0443,5.0634,5.0635,5.0728,5.0744,5.0795,0,5.0842,0,5.0867,5.0901,5.0902,0,0,0,5.0439,5.0484,5.0535,5.0384,5.0444,5.0634,5.0546,5.0737,5.0755,5.0816,5.0846,5.0855,5.0872,5.0903,5.0904,5.1208,5.121,0,0,5.0428,5.0416,5.0522,5.0547,5.0519,5.054,5.0552,5.0748,5.0778,5.0847,5.0861,5.0876,5.0904,5.0906,5.1207,5.1209,0,0,0,5.0399,5.0408,5.0454,5.0537,5.0572,5.0546,5.056,5.077,5.0786,5.0863,5.0879,5.0906,5.0909,5.1205,5.1208,5.1271,0,0,0,5.0392,5.0391,5.045,5.0444,5.0568,5.0674,5.0577,5.0772,5.0795,5.0877,5.0906,5.0911,5.1204,5.1207,5.1266,5.1303,0,0,0,5.0367,5.0388,5.0417,5.0443,5.0526,5.0671,5.0698,5.0777,5.0804,5.0902,5.0912,5.1203,5.1206,5.1261,5.1295,5.138,0,0,0,5.0336,5.0469,5.0418,5.0572,5.0524,5.0709,5.0697,5.0835,5.0926,5.0907,5.1204,5.1207,5.1259,5.129,5.1375,5.1449,5.1479,0,0,5.0496,5.0488,5.0579,5.0539,5.073,5.068,5.088,5.0974,5.0994,5.1135,5.1143,5.1267,5.1294,5.1379,5.165,5.1674,0,0,0,5.0626,5.0691,5.0745,5.0833,5.0909,5.0978,5.1044,5.1079,5.12,5.1065,5.1321,5.1337,5.1387,5.1424,5.1444,5.1488,5.1223,5.1223,5.1223,5.0834,5.0854,5.1007,5.1051,5.1135,5.1203,5.1273,5.1332,5.1325,5.1386,5.1428,5.159,5.1633,5.1648,5.1693,5.1468,5.1469,5.1469,5.1469,5.1071,5.1167,5.1158,5.1303,5.1323,5.1444,5.1514,5.1505,5.162,5.156,5.1605,5.1538,5.1673,5.1714,5.1474,5.1473,5.1473,5.1472,5.1472,5.121,5.126,5.1301,5.1431,5.1528,5.1567,5.1679,5.1692,5.1705,5.1749,5.1796,5.1795,5.1796,5.177,5.1771,5.1772,5.1772,5.1772,5.1773,5.1338,5.1383,5.1476,5.157,5.1629,5.1707,5.1776,5.1834,5.19,5.1901,5.1901,5.1889,5.1683,5.1631,5.1782,5.178,5.1779,5.1778,5.1778,5.1571,5.1521,5.1666,5.1725,5.1836,5.1931,5.1947,5.2063,5.2112,5.2167,5.2145,5.1991,5.1982,5.1966,5.1923,5.2141,5.214,5.2141,5.2141,5.1689,5.1687,5.1838,5.1931,5.2024,5.2053,5.2215,5.227,5.2318,5.235,5.232,5.2264,5.2247,5.2249,5.2227,5.2187,5.2467,5.2467,5.2467,5.1835,5.1842,5.1978,5.2026,5.2114,5.2189,5.2342,5.2448,5.2492,5.2481,5.2375,5.2361,5.2271,5.2241,5.2227,5.2193,5.212,0,0]}]]